Regional Weather Roundup
Issued by NWS Cleveland, OH

Home | Current Version | Previous Version | Graphics & Text | Print | Product List | Glossary On
Versions: 1 2 3 4 5 6 7 8 9 10 11 12 13 14 15 16 17 18 19 20 21 22 23 24 25 26 27 28 29 30 31 32 33 34 35 36 37 38 39 40 41 42 43 44 45 46 47 48 49 50
000
ASUS41 KCLE 021200
RWRCLE
OHIO REGIONAL WEATHER ROUNDUP
NATIONAL WEATHER SERVICE WILMINGTON, OH
800 AM EDT TUE SEP 02 2014

NOTE: "FAIR" INDICATES FEW OR NO CLOUDS BELOW 12,000 FEET WITH NO
SIGNIFICANT WEATHER AND/OR OBSTRUCTIONS TO VISIBILITY.

OHZ001>008-015>018-024>027-034-035-043-044-021300-
   NORTHWEST OHIO

CITY           SKY/WX    TMP DP  RH WIND       PRES   REMARKS
DEFIANCE       CLOUDY    68  65  90 S6        29.90F
FINDLAY        LGT RAIN  69  65  86 SW7       29.92F
TOLEDO EXPRESS LGT RAIN  68  67  96 W8        29.89F
TOLEDO METCALF LGT RAIN  70  66  87 SW12      29.92R
LIMA           LGT RAIN  69  64  84 S8        29.92F
$$

OHZ009>014-019>023-028>033-038-089-021300-
   NORTHEAST OHIO

CITY           SKY/WX    TMP DP  RH WIND       PRES   REMARKS
CLE-HOPKINS    PTSUNNY   72  68  87 SW12      29.95R
CLE-LAKEFRONT  MOSUNNY   74  68  81 SW15      29.91R
CUY CO. ARPT   PTSUNNY   73  70  88 SW12      29.94R
LORAIN-ELYRIA  CLOUDY    74  68  81 SW9       29.95R
ASHTABULA      MOSUNNY   70  68  93 S7        29.93R
AKRON-CANTON   PTSUNNY   72  68  87 SW6       29.98R FOG
WOOSTER        NOT AVBL
MANSFIELD      CLOUDY    71  69  93 SW8       29.99R
YOUNGSTOWN     PTSUNNY   71  69  93 SW8       29.97R
$$

OHZ042-051>053-060>062-070>072-077>081-021300-
  SOUTHWEST OHIO

CITY           SKY/WX    TMP DP  RH WIND       PRES   REMARKS
CINC-COVINGTON TSTM      67  65  93 N9        30.01R FOG
CINC-LUNKEN    LGT RAIN  67  65  93 N9        30.00F
HAMILTON       RAIN      67  66  97 CALM      30.01F FOG
DAYTON         NOT AVBL
WRIGHT-PAT AFB CLOUDY    68  66  94 SW2       29.97F
DAYTON GENERAL LGT RAIN  67  65  93 CALM      29.98F
WILMINGTON     RAIN      67  64  90 NW8       30.02R
$$

OHZ036-037-039>041-045>050-054>059-063>069-073>076-082>088-021300-
  CENTRAL AND SOUTHEAST OHIO

CITY           SKY/WX    TMP DP  RH WIND       PRES   REMARKS
COLUMBUS       LGT RAIN  73  70  88 SW15      29.99R FOG
OSU AIRPORT    LGT RAIN  70  67  90 NW9       29.99R VSB 1
BOLTON FIELD   CLOUDY    68  68 100 W9G16     30.01R
RICKENBACK AFB NOT AVBL
NEWARK         HVY RAIN  72  70  93 CALM      29.98S FOG
MARION         LGT RAIN  71  66  84 W9        29.97S
LANCASTER      CLOUDY    72  69  90 CALM      30.00R
ZANESVILLE     LGT RAIN  72  69  90 CALM      29.99R FOG
NEW PHILLY     PTSUNNY   72  70  93 CALM      29.99R
$$



USA.gov is the U.S. government's official web portal to all federal, state and local government web resources and services.